Regional Weather Roundup
Issued by NWS Midland/Odessa, TX

Home | Current Version | Previous Version | Text Only | Print | Product List | Glossary On
Versions: 1 2 3 4 5 6 7 8 9 10 11 12 13 14 15 16 17 18 19 20 21 22 23 24 25 26 27 28 29 30 31 32 33 34 35 36 37 38 39 40 41 42 43 44 45 46 47 48 49 50
000
ASUS44 KMAF 301310
RWRMAF
MIDLAND AREA WEATHER ROUNDUP
NATIONAL WEATHER SERVICE MIDLAND TX
800 AM CDT SUN APR 30 2017

...IN SOUTHWEST TEXAS AND SOUTHEAST NEW MEXICO...

CITY           SKY/WX    TMP DP  RH WIND       PRES   REMARKS
ALPINE         CLEAR     33  26  73 S6        30.14R WCI  28
ANDREWS        FAIR      37  32  82 W10       30.02R WCI  29
ARTESIA        CLEAR     34  34 100 SE6       30.01F WCI  29
BIG SPRING     SUNNY     40  31  70 W13       30.02S WCI  33
CARLSBAD       CLEAR     37  33  85 S9        30.01F WCI  30
DRYDEN           N/A     49  29  46 NW9       30.06R
FORT STOCKTON  CLEAR     40  31  70 W8        30.09S WCI  34
GUAD PASS      FOG       29  29 100 SW16      30.03F VSB<1/4 WCI  17
HOBBS          SUNNY     32  32 100 W9        30.01S WCI  24
MARFA          CLEAR     29  26  89 E3        30.10R
MIDLAND AIRPK  SUNNY     41  31  68 W14       30.03S WCI  34
MIDLAND INTL   SUNNY     40  30  67 W13       30.02S WCI  32
ODESSA         SUNNY     39  31  72 W13       30.04S WCI  31
PECOS          CLEAR     37  32  82 W8        30.09S WCI  30
PRESIDIO       FAIR      48  31  52 S6        30.12R
SEMINOLE       SUNNY     37  32  84 W10       30.01R WCI  29
SNYDER         SUNNY    N/A N/A N/A W12       29.94F
WINK           CLEAR     40  33  76 W10       30.05S WCI  33
$$
...OTHER STATIONS IN TEXAS...

CITY           SKY/WX    TMP DP  RH WIND       PRES   REMARKS
ABILENE        SUNNY     43  34  70 W21G26    29.91R WCI  34
AMARILLO       LGT SNOW  33  33 100 NW37G47   29.75S VSB 1   WCI  18
AUSTIN         CLOUDY    54  41  61 NW12G18   29.93R
BROWNSVILLE    SUNNY     71  48  43 NW10      29.91R
CORPUS CHRISTI CLOUDY    63  48  58 NW10      29.93R
DALLAS FTW     CLOUDY    50  38  63 W16       29.80R
DEL RIO          N/A     54  32  43 NW14G22   30.05R
EL PASO        CLEAR     40  32  73 SE7       30.07S WCI  35
HOUSTON INT    CLOUDY    62  48  60 NW14      29.87R
LUBBOCK        MOSUNNY   39  31  72 NW24G32   29.88R WCI  28
SAN ANGELO     SUNNY     45  30  55 W15       30.02R WCI  38
SAN ANTONIO    MOSUNNY   53  41  63 NW8       29.95R
WACO           CLOUDY    49  40  71 W13       29.88R
WICHITA FALLS  NOT AVBL
$$
...OTHER LOCATIONS IN NEW MEXICO...

CITY           SKY/WX    TMP DP  RH WIND       PRES   REMARKS
ALAMOGORDO     CLEAR     32  32 100 SE5       30.07S WCI  27
ALBUQUERQUE    PTCLDY    36  35  96 W5        30.05R WCI  32
CANNON AFB     PTSUNNY   34  34 100 NW18G26   29.92S WCI  23
CLOVIS         MOSUNNY   34  27  75 NW20G25   29.91F WCI  22
HOLLOMAN AFB   CLEAR     35  35  99 SE7       30.10R WCI  29
ROSWELL        CLEAR     36  30  79 S8        30.02  WCI  30
RUIDOSO        CLEAR     32  25  74 NW12G22   30.01R WCI  23
SANTA FE       PTCLDY    29  29 100 W3        29.99R
TRUTH OR CONSE CLEAR     37  27  67 VRB3      30.06F
TUCUMCARI      CLOUDY    36  31  82 W17       29.91F WCI  26
$$




USA.gov is the U.S. government's official web portal to all federal, state and local government web resources and services.